Weather History for Aberdeen, SD

Change the Weather History Date:

Friday, September 20, 2013

  Actual Average Record
Temperature  
Mean Temperature 54 °F 57 °F  
Max Temperature 66 °F 70 °F 94 °F (1937)
Min Temperature 41 °F 44 °F 20 °F (1901)
Degree Days  
Heating Degree Days 11 9  
Month to date heating degree days 66 114  
Since 1 July heating degree days 117 165  
Cooling Degree Days 0 1  
Month to date cooling degree days 76 36  
Year to date cooling degree days 565 519  
Growing Degree Days 4 (Base 50)    
Moisture  
Dew Point 41 °F    
Average Humidity 65    
Maximum Humidity 93    
Minimum Humidity 37    
Precipitation  
Precipitation 0.01 in 0.07 in 1.50 in (1989)
Month to date precipitation 1.50 1.48  
Year to date precipitation 15.26 17.77  
Sea Level Pressure  
Sea Level Pressure 30.00 in    
Wind  
Wind Speed 11 mph (NW)    
Max Wind Speed 22 mph    
Max Gust Speed 26 mph    
Visibility 10 miles    
Events Rain    
T = Trace of Precipitation, MM = Missing Value Source: NWS Daily Summary

Daily Weather History Graph

Daily Weather History Graph

Search for Another Location

Airport:

Trip Planner

Search our weather history database for the weather conditions in past years. The results will help you decide how hot, cold, wet, or windy it might be!

Date:

Astronomy

Sep. 20, 2013 Rise Set
Actual Time 7:18 AM CDT 7:34 PM CDT
Civil Twilight 6:48 AM CDT 8:04 PM CDT
Nautical Twilight 6:14 AM CDT 8:38 PM CDT
Astronomical Twilight 5:38 AM CDT 9:14 PM CDT
Moon 8:02 PM CDT (9/20) 8:40 AM CDT (9/20)
Length of Visible Light 13h 15m
Length of Day
12h 15m
Full, 98% of the Moon is Illuminated
Sep 20
Full
Sep 26
Last Quarter
Oct 4
New
Oct 11
First Quarter
Oct 18
Full

Hourly Weather History & Observations

Time (CDT) Temp. Windchill Dew Point Humidity Pressure Visibility Wind Dir Wind Speed Gust Speed Precip Events Conditions
12:53 AM 52.0 °F - 46.0 °F 80% 29.98 in 10.0 mi WNW 17.3 mph 25.3 mph N/A   Overcast
1:53 AM 52.0 °F - 46.0 °F 80% 29.99 in 10.0 mi WNW 15.0 mph - N/A   Overcast
2:31 AM 50.0 °F - 46.4 °F 87% 29.99 in 10.0 mi NW 13.8 mph - 0.01 in Rain Light Rain
2:50 AM 50.0 °F - 46.4 °F 87% 29.98 in 9.0 mi NW 11.5 mph - 0.01 in Rain Light Rain
2:53 AM 50.0 °F - 46.9 °F 89% 29.99 in 10.0 mi NW 12.7 mph - 0.01 in Rain Light Rain
3:51 AM 51.8 °F - 44.6 °F 76% 29.99 in 10.0 mi NW 13.8 mph - 0.00 in   Overcast
3:53 AM 51.1 °F - 45.0 °F 80% 29.99 in 10.0 mi NNW 15.0 mph - 0.00 in   Overcast
4:53 AM 50.0 °F - 43.0 °F 77% 30.00 in 10.0 mi NW 13.8 mph - N/A   Overcast
5:53 AM 48.9 °F - 43.0 °F 80% 30.01 in 10.0 mi NW 11.5 mph - N/A   Overcast
6:53 AM 46.9 °F - 44.1 °F 90% 30.02 in 10.0 mi WNW 8.1 mph - N/A   Mostly Cloudy
7:53 AM 48.0 °F - 43.0 °F 83% 30.04 in 10.0 mi WNW 9.2 mph - N/A   Overcast
8:48 AM 50.0 °F - 42.8 °F 76% 30.03 in 10.0 mi WNW 11.5 mph - N/A   Overcast
8:53 AM 50.0 °F - 41.0 °F 71% 30.04 in 10.0 mi NW 12.7 mph - N/A   Overcast
9:11 AM 50.0 °F - 41.0 °F 71% 30.03 in 10.0 mi WNW 12.7 mph 18.4 mph N/A   Overcast
9:53 AM 51.1 °F - 39.9 °F 66% 30.05 in 10.0 mi NW 9.2 mph - N/A   Overcast
10:53 AM 54.0 °F - 39.9 °F 59% 30.05 in 10.0 mi NNW 17.3 mph - N/A   Overcast
11:53 AM 57.9 °F - 37.9 °F 47% 30.04 in 10.0 mi NNW 15.0 mph 23.0 mph N/A   Scattered Clouds
12:53 PM 60.1 °F - 39.0 °F 46% 30.03 in 10.0 mi NNW 19.6 mph 24.2 mph N/A   Partly Cloudy
1:53 PM 61.0 °F - 39.9 °F 46% 30.01 in 10.0 mi WNW 9.2 mph 23.0 mph N/A   Partly Cloudy
2:53 PM 64.0 °F - 37.9 °F 38% 29.99 in 10.0 mi NW 19.6 mph 26.5 mph N/A   Clear
3:53 PM 64.9 °F - 37.9 °F 37% 29.98 in 10.0 mi NW 12.7 mph 23.0 mph N/A   Clear
4:53 PM 64.9 °F - 37.0 °F 36% 29.97 in 10.0 mi NNW 16.1 mph 24.2 mph N/A   Clear
5:53 PM 64.9 °F - 37.9 °F 37% 29.96 in 10.0 mi NW 15.0 mph - N/A   Clear
6:53 PM 61.0 °F - 37.9 °F 42% 29.97 in 10.0 mi NNW 10.4 mph - N/A   Clear
7:53 PM 54.0 °F - 39.9 °F 59% 29.98 in 10.0 mi NNW 3.5 mph - N/A   Clear
8:53 PM 48.0 °F - 39.9 °F 74% 29.99 in 10.0 mi Calm Calm - N/A   Clear
9:53 PM 42.1 °F - 39.0 °F 89% 30.00 in 10.0 mi Calm Calm - N/A   Clear
10:53 PM 42.1 °F - 37.9 °F 85% 30.00 in 10.0 mi Calm Calm - N/A   Clear
11:53 PM 43.0 °F 41.3 °F 39.0 °F 86% 30.01 in 10.0 mi NNW 3.5 mph - N/A   Clear